Location: *
(51.8167°N, 12.5000°E)
Time: 14:37:09
(UTC+00:00)

Cosmos 2251 Rocket - Pass Details

Date: 16 September 2019
Orbit: 764 x 792 km, 74.0° (Epoch: 15 October)

Event Time Altitude Azimuth Distance (km) Brightness Sun altitude
Rises 18:26:25 0° 332° (NNW) 3,302 7.6 -10.4°
Reaches altitude 10° 18:28:52 10° 327° (NNW) 2,370 6.8 -10.7°
Maximum altitude 18:34:05 52° 253° (WSW) 982 4.4 -11.5°
Drops below altitude 10° 18:39:16 10° 178° (S) 2,353 5.8 -12.3°
Sets 18:41:41 0° 173° (S) 3,276 6.5 -12.6°
